EW4964 Weather Reports


Display with metric or nautical units.
time (UTC)temp
F
wind
direction
speed
MPH
gust
MPH
rain 1hr
in
rain 24hr
in
rain mn
in
humidity
%
barometer
mb
20260902033005 52 306 0.0 2.0 0.00 0.00 0.00 43 1019.6
20260902031504 52 288 0.0 2.0 0.00 0.00 0.00 43 1019.5
20260902030005 53 332 0.0 2.0 0.00 0.00 0.00 41 1019.4
20260902024504 53 333 1.0 2.0 0.00 0.00 0.00 41 1019.5
20260902023005 52 313 0.0 2.0 0.00 0.00 0.00 43 1019.5
20260902021504 53 0 0.0 0.0 0.00 0.00 0.00 42 1019.4
20260902014505 53 270 0.0 1.0 0.00 0.00 0.00 39 1019.6
20260902013004 54 270 0.0 1.0 0.00 0.00 0.00 39 1019.6
20260902011504 54 270 1.0 2.0 0.00 0.00 0.00 39 1019.6
20260902010005 54 270 0.0 2.0 0.00 0.00 0.00 38 1019.5
20260902004505 54 270 0.0 1.0 0.00 0.00 0.00 38 1019.5
20260902003008 55 270 0.0 2.0 0.00 0.00 0.00 37 1019.8
20260902001508 55 270 0.0 2.0 0.00 0.00 0.00 37 1019.6
20260902000007 55 270 0.0 2.0 0.00 0.00 0.00 37 1019.5
20260901231507 55 270 0.0 2.0 0.00 0.00 0.00 37 1019.7
20260901230008 55 314 0.0 1.0 0.00 0.00 0.00 37 1019.9
20260901224508 56 276 0.0 2.0 0.00 0.00 0.00 37 1019.9
20260901223008 56 270 0.0 2.0 0.00 0.00 0.00 37 1019.9
20260901221507 56 272 0.0 2.0 0.00 0.00 0.00 37 1020.0
20260901214508 55 311 0.0 2.0 0.00 0.00 0.00 38 1020.1
20260901211507 55 0 0.0 0.0 0.00 0.00 0.00 38 1020.0
20260901210007 55 0 0.0 0.0 0.00 0.00 0.00 38 1020.1
20260901204508 55 1 0.0 1.0 0.00 0.00 0.00 37 1019.8
20260901201508 56 0 0.0 0.0 0.00 0.00 0.00 36 1020.1
20260901200008 56 0 0.0 0.0 0.00 0.00 0.00 36 1019.8
20260901194507 56 0 0.0 0.0 0.00 0.00 0.00 36 1019.7
20260901193007 57 0 0.0 0.0 0.00 0.00 0.00 35 1019.5
20260901191507 57 1 0.0 1.0 0.00 0.00 0.00 35 1019.8
20260901190007 58 334 0.0 2.0 0.00 0.00 0.00 34 1019.5
20260901184507 58 270 0.0 1.0 0.00 0.00 0.00 34 1019.5
20260901183008 58 270 0.0 1.0 0.00 0.00 0.00 33 1019.4
20260901181507 59 270 0.0 1.0 0.00 0.00 0.00 33 1019.4
20260901180007 60 270 0.0 1.0 0.00 0.00 0.00 32 1019.2
20260901174507 61 270 0.0 1.0 0.00 0.00 0.00 32 1019.1
20260901173007 62 270 0.0 1.0 0.00 0.00 0.00 28 1019.2
20260901171507 64 289 0.0 2.0 0.00 0.00 0.00 27 1019.1
20260901170007 64 346 1.0 3.0 0.00 0.00 0.00 26 1019.1
20260901164507 66 33 1.0 4.0 0.00 0.00 0.00 25 1018.9
20260901163007 68 18 2.0 5.0 0.00 0.00 0.00 25 1019.0
20260901161507 69 330 2.0 5.0 0.00 0.00 0.00 24 1019.1
20260901160007 70 299 3.0 7.0 0.00 0.00 0.00 24 1019.2
20260901154506 71 298 3.0 8.0 0.00 0.00 0.00 24 1019.0
20260901153006 70 329 3.0 11.0 0.00 0.00 0.00 25 1019.1
20260901151506 69 331 3.0 7.0 0.00 0.00 0.00 24 1019.2
20260901150006 68 1 3.0 8.0 0.00 0.00 0.00 24 1019.4
20260901144506 69 344 3.0 10.0 0.00 0.00 0.00 24 1019.3
20260901143006 70 346 5.0 12.0 0.00 0.00 0.00 24 1019.4
20260901141507 70 34 4.0 9.0 0.00 0.00 0.00 24 1019.3
20260901130006 66 311 3.0 9.0 0.00 0.00 0.00 26 1019.4
20260901124506 66 342 5.0 9.0 0.00 0.00 0.00 26 1019.2
20260901123006 66 321 4.0 7.0 0.00 0.00 0.00 27 1019.1
20260901121506 65 200 3.0 8.0 0.00 0.00 0.00 28 1019.5
20260901120006 64 317 3.0 8.0 0.00 0.00 0.00 29 1019.3
20260901113006 65 330 4.0 11.0 0.00 0.00 0.00 27 1019.4
20260901111506 66 326 3.0 8.0 0.00 0.00 0.00 29 1019.2
20260901110006 65 49 3.0 9.0 0.00 0.00 0.00 28 1019.4
20260901104506 63 284 5.0 10.0 0.00 0.00 0.00 31 1019.2
20260901103006 64 327 4.0 11.0 0.00 0.00 0.00 31 1019.1
20260901101505 63 282 5.0 11.0 0.00 0.00 0.00 31 1019.1
20260901100006 62 334 4.0 11.0 0.00 0.00 0.00 33 1019.0
20260901094505 62 263 4.0 12.0 0.00 0.00 0.00 31 1019.4
20260901093006 61 269 4.0 12.0 0.00 0.00 0.00 34 1019.1
20260901091506 61 282 4.0 6.0 0.00 0.00 0.00 36 1019.0
20260901090006 60 346 5.0 11.0 0.00 0.00 0.00 36 1018.9
20260901084506 60 306 5.0 10.0 0.00 0.00 0.00 36 1018.9
20260901083005 60 344 6.0 12.0 0.00 0.00 0.00 37 1018.6
20260901081505 60 305 5.0 11.0 0.00 0.00 0.00 38 1018.5
20260901080006 60 308 6.0 14.0 0.00 0.00 0.00 39 1018.4
20260901074506 59 315 5.0 11.0 0.00 0.00 0.00 41 1018.6
20260901070005 58 307 5.0 10.0 0.00 0.00 0.00 44 1018.0
20260901063005 56 246 4.0 8.0 0.00 0.00 0.00 48 1017.9
20260901061505 56 82 4.0 10.0 0.00 0.00 0.00 51 1018.0
20260901060005 55 1 5.0 11.0 0.00 0.00 0.00 51 1017.9
20260901054505 54 289 4.0 10.0 0.00 0.00 0.00 52 1017.8
20260901053005 54 309 4.0 9.0 0.00 0.00 0.00 52 1017.6
20260901050005 54 326 3.0 6.0 0.00 0.00 0.00 53 1017.6
20260901044506 53 279 4.0 8.0 0.00 0.00 0.00 53 1017.7
20260901043005 53 298 3.0 7.0 0.00 0.00 0.00 53 1017.5
20260901041505 53 267 4.0 8.0 0.00 0.00 0.00 52 1017.2
20260901040005 53 257 4.0 10.0 0.00 0.00 0.00 52 1017.0